Home > Weather > Campo Grande > Past weeks

Flag for Brazil Weather for the Past 2 Weeks in Campo Grande, Mato Grosso Do Sul, Brazil

Now
73 °F

Clear.


Feels Like: 72 °F
Forecast: 72 / 88 °F
Wind: 3 mph from Northeast

Location: Campo Grande Aeroporto

Current Time: Feb 12, 2016 at 5:44:52 AM

Latest Report: Feb 12, 2016 at 5:00 AM


Visibility: 10 mi

Pressure: 29.95 "Hg (28.22 "Hg at 516m altitude)

Humidity: 89%

Dew point: 70 °F

Location of Campo GrandeLocation

Historic Weather in Campo Grande — Graph

°F

Campo Grande Temperature Yesterday

Maximum temperature yesterday: 90 °F (at 1:00 PM)
Minimum temperature yesterday: 72 °F (at 5:00 AM)
Average temperature yesterday: 81 °F

High & Low Weather Summary for the Past Weeks

 TemperatureHumidityPressure
High91 °F (Feb 8, 3:00 PM)100% (Jan 30, 12:00 AM)30.12 "Hg (Jan 30, 12:00 AM)
Low37 °F (Jan 30, 12:00 AM)17% (Feb 3, 4:00 PM)29.83 "Hg (Jan 28, 5:00 PM)
Average77 °F77%29.97 "Hg
* Reported Jan 28 4:00 AM — Feb 12 4:00 AM, Campo Grande, Weather by CustomWeather, © 2016

Note: Actual official high and low records may vary slightly from our data, if they occured in-between our weather recording intervals... More about our weather records

Advertising

Campo Grande Weather History for the Previous 24 Hours

 ConditionsComfort  
Time TempWeatherWind HumidityBarometerVisibility
4:00 AM
Fri, Feb 12
73 °FClear.3 mph89%29.92 "Hg10 mi
3:00 AM73 °FClear.5 mph89%29.92 "Hg10 mi
2:00 AM75 °FClear.3 mph83%29.92 "Hg10 mi
1:00 AM75 °FClear.3 mph83%29.89 "Hg10 mi
12:00 AM75 °FClear.No wind89%29.95 "Hg10 mi
11:00 PM
Thu, Feb 11
77 °FClear.2 mph83%29.95 "Hg10 mi
10:00 PM79 °FPassing clouds.3 mph79%29.95 "HgN/A
9:00 PM81 °FPassing clouds.5 mph74%29.92 "HgN/A
8:00 PM81 °FPassing clouds.6 mph70%29.92 "HgN/A
7:00 PM84 °FPassing clouds.8 mph62%29.92 "HgN/A
6:00 PM86 °FScattered clouds.12 mph59%29.89 "HgN/A
5:00 PM88 °FScattered showers. Scattered clouds.12 mph59%N/AN/A
4:00 PM88 °FScattered clouds.13 mph59%29.92 "HgN/A
3:00 PM88 °FScattered clouds.14 mph55%29.95 "HgN/A
2:00 PM90 °FScattered showers. Broken clouds.10 mph55%29.98 "HgN/A
1:00 PM90 °FPartly sunny.10 mph52%29.98 "HgN/A
12:00 PM88 °FPartly sunny.9 mph55%30.01 "HgN/A
11:00 AM86 °FPartly sunny.8 mph59%30.04 "HgN/A
10:00 AM84 °FPassing clouds.6 mph62%30.04 "HgN/A
9:00 AM81 °FSunny.2 mph70%30.04 "Hg10 mi
8:00 AM75 °FSunny.2 mph89%30.04 "Hg10 mi
7:00 AM73 °FSunny.3 mph89%30.01 "Hg10 mi
6:00 AM73 °FPassing clouds.3 mph89%29.98 "HgN/A
5:00 AM72 °FPassing clouds.1 mph94%29.95 "HgN/A
Weather by CustomWeather, © 2016

See weather overviewHow to use our weather pages